Wind_Speed
26 26 26 26 26 27 28 29 30 30 30 31 32 33 33 33 34 34 34 34 34 35 35 36 37 38 38 39 40 40 41 41 42 43 44 45 45 46 48 48 48 49 50 50
26 26 26 26 27 28 29 30 31 32 32 33 33 34 34 34 35 35 35 35 35 35 35 36 37 38 39 41 41 42 42 43 44 45 46 47 47 48 49 49 50 51 51 52
27 26 26 27 28 29 30 31 32 33 34 34 36 35 34 34 35 35 35 36 36 36 36 36 36 37 38 39 40 42 43 44 45 46 46 47 48 48 49 50 51 52 53 53
27 27 28 28 29 31 31 32 33 34 36 37 37 38 35 34 34 34 35 36 36 37 37 36 37 38 38 39 40 41 43 44 45 46 47 48 48 49 50 51 52 53 53 53
29 28 29 30 31 32 33 34 35 36 37 38 38 39 36 35 34 34 35 35 36 36 36 36 36 37 38 40 41 42 43 44 45 46 47 49 50 50 51 52 53 53 54 54
30 30 30 31 31 33 34 34 36 37 38 39 37 37 37 35 34 34 35 36 36 36 36 37 37 38 39 40 41 42 43 44 45 47 48 49 50 51 51 52 53 54 55 55
31 31 31 32 33 33 34 35 37 38 39 39 37 38 38 36 36 35 36 36 36 37 37 37 38 38 39 40 42 43 44 45 46 48 49 49 50 51 52 53 53 54 55 55
32 33 32 33 34 35 35 35 36 38 40 40 39 39 38 37 37 37 37 37 37 37 38 39 40 40 41 42 43 44 45 46 48 49 50 50 51 52 52 53 53 53 54 54
34 34 33 34 34 35 36 36 36 38 40 40 40 40 39 37 37 37 36 37 38 39 39 40 41 41 42 43 44 45 46 48 49 50 51 51 51 52 52 52 52 52 52 52
35 36 35 35 35 36 37 37 37 38 39 41 41 40 39 38 38 37 37 37 38 39 40 41 42 43 43 43 44 46 47 48 50 50 51 51 51 51 51 50 50 51 51 51
36 38 38 36 36 37 37 37 38 39 40 40 41 40 38 38 38 38 38 38 39 40 40 41 42 43 44 45 45 46 47 49 50 50 50 51 51 50 50 49 49 49 50 50
37 39 39 38 38 38 38 38 38 39 40 40 42 41 39 39 39 39 40 40 40 40 41 42 43 44 45 46 46 47 47 48 49 50 50 50 49 49 48 48 48 48 49 49
37 39 40 41 40 39 40 39 39 40 41 41 42 41 40 40 41 41 41 41 42 42 43 44 45 45 46 46 46 47 48 48 48 49 49 49 48 47 47 47 47 47 47 48
39 40 40 40 41 41 40 40 39 40 41 42 41 40 39 40 41 41 41 41 42 43 44 44 45 45 46 46 46 47 47 47 47 47 47 47 46 46 45 45 45 46 46 46
41 41 40 40 40 40 40 39 39 40 40 41 40 39 39 39 40 40 40 41 42 42 43 43 43 43 44 45 46 46 46 46 45 45 45 45 44 44 44 44 44 43 43 44
40 40 40 40 40 41 41 39 39 40 40 41 41 40 39 40 40 41 41 42 42 43 43 43 42 43 43 44 45 45 45 44 45 45 44 43 43 43 43 43 43 42 42 42
40 41 41 41 41 42 41 39 39 39 39 40 40 40 40 40 41 41 42 42 42 42 42 42 42 43 43 43 44 44 43 44 44 44 43 42 42 42 42 42 42 42 41 41
40 40 41 42 42 43 41 39 39 39 39 39 39 39 40 40 40 40 41 40 41 40 40 40 41 41 42 42 43 43 43 44 43 42 41 41 41 41 41 41 40 40 40 40
39 39 41 42 42 42 40 39 39 40 40 38 39 39 39 39 39 39 39 39 39 39 39 40 41 41 42 42 42 42 42 42 41 41 41 40 41 41 40 39 39 38 38 37
39 40 40 41 41 42 40 40 40 40 40 39 39 39 39 38 38 38 38 39 39 39 40 41 41 42 42 42 42 41 41 41 40 39 39 39 39 39 38 38 37 37 37 36
39 39 39 39 41 41 40 39 38 39 39 39 38 38 37 38 38 38 38 38 40 40 41 41 42 42 42 41 41 40 40 39 39 38 38 38 38 38 37 37 37 37 36 36
38 38 38 38 39 39 38 38 38 38 39 39 38 38 38 38 38 38 38 39 39 39 40 40 41 41 41 41 40 40 39 38 38 37 38 37 37 37 36 36 36 36 36 35
37 37 37 37 37 37 37 38 38 38 38 38 38 38 38 38 38 38 38 38 38 39 39 39 39 40 40 40 39 39 38 37 37 37 37 37 36 36 35 35 35 35 34 34
37 36 36 36 36 36 36 37 37 37 37 37 36 37 38 38 38 38 38 38 38 38 39 39 39 39 39 39 38 38 37 37 36 36 36 35 35 35 35 35 34 34 34 34
37 36 35 36 37 37 36 37 37 36 36 36 36 37 38 39 39 38 38 38 38 39 39 39 39 39 38 37 36 36 36 36 35 35 34 34 34 33 33 33 33 33 33 33
35 34 35 35 35 36 35 36 35 35 36 36 37 37 38 39 39 39 39 38 38 39 39 39 38 37 36 36 35 34 34 34 34 33 33 31 31 31 31 31 31 32 33 33
Wind_Direction
280 280 281 284 285 286 287 287 288 288 288 287 286 286 286 286 285 285 285 283 282 281 279 277 276 275 274 274 274 273 272 273 274 274 273 274 275 276 276 275 274 274 273 272
281 281 284 284 284 285 286 287 289 289 290 289 288 287 287 286 286 286 286 284 283 282 280 279 277 276 276 276 275 273 274 274 275 275 275 275 276 277 278 277 275 274 274 273
282 283 284 284 285 286 287 288 289 290 290 290 289 288 288 287 287 286 286 285 283 282 281 280 278 278 277 277 276 275 276 276 277 277 277 277 278 278 279 279 277 276 274 273
283 283 284 286 288 289 289 290 290 291 291 292 291 290 289 289 287 286 286 286 285 284 282 281 280 280 279 279 278 277 278 278 277 277 278 278 279 279 279 280 279 277 275 273
285 286 287 288 289 289 290 291 291 292 292 291 292 291 291 290 288 288 288 287 286 284 282 283 282 282 281 281 279 279 279 280 280 280 280 280 280 280 280 281 280 277 275 274
286 286 287 288 289 289 290 292 292 292 292 291 294 293 292 291 291 290 289 288 287 286 283 283 284 283 283 283 282 281 281 281 282 282 282 282 282 282 281 281 280 278 276 274
286 287 288 289 290 291 292 293 294 293 293 293 295 293 293 293 292 291 291 289 288 288 285 283 284 285 286 286 285 284 283 283 283 284 283 283 283 283 282 280 279 278 277 275
287 287 289 290 290 292 292 292 293 293 294 294 295 294 295 294 293 292 291 289 288 288 287 285 286 287 287 288 288 286 284 284 285 285 285 285 284 284 282 281 281 280 278 276
289 290 290 289 289 289 290 290 291 291 292 293 294 295 294 294 293 292 290 289 288 289 288 287 287 288 289 289 289 288 287 286 287 287 287 286 285 284 283 282 281 280 278 277
289 290 291 290 289 288 288 289 290 290 291 293 294 295 297 297 296 294 292 290 289 289 289 289 289 289 290 290 290 290 289 288 287 287 287 287 286 285 284 283 281 280 278 277
290 289 291 290 290 290 289 288 288 289 290 291 292 294 296 296 294 293 293 291 290 289 290 291 291 291 291 291 292 292 291 289 288 287 288 287 287 286 285 283 282 280 279 278
288 289 290 291 291 289 288 289 288 288 290 290 291 292 293 294 293 292 291 291 290 290 290 291 292 292 293 292 292 293 293 292 290 288 288 288 287 286 285 283 282 281 280 279
287 287 288 289 290 290 290 289 288 287 288 288 289 293 294 294 294 292 291 291 290 290 290 291 292 292 293 292 293 293 294 294 292 290 289 288 288 286 285 284 283 282 281 280
285 286 287 288 290 290 290 290 289 288 288 289 291 293 293 293 294 293 292 291 292 292 292 292 292 292 293 293 293 293 294 294 294 292 291 289 288 287 286 285 285 283 282 281
285 287 288 288 289 289 289 289 289 288 288 289 291 290 292 292 293 294 293 293 293 294 294 294 294 294 294 294 295 294 295 295 295 294 292 291 289 288 287 286 285 284 283 282
285 287 288 288 290 290 289 289 289 289 289 289 289 290 292 293 293 294 294 294 294 294 295 295 296 295 296 296 296 296 296 296 296 295 293 291 289 289 288 286 285 285 284 283
285 287 288 289 289 289 290 292 291 290 289 290 290 291 291 292 293 293 293 295 295 295 296 296 296 297 297 297 297 297 297 297 297 296 293 291 290 290 289 287 286 285 284 283
285 287 287 288 287 287 291 291 291 291 291 291 291 291 291 292 292 293 294 295 296 296 296 296 297 298 299 299 300 299 299 299 298 297 294 291 290 290 289 288 287 287 285 284
285 286 286 287 288 288 290 291 292 291 291 291 291 291 292 292 293 293 295 294 295 296 297 299 299 299 300 300 301 300 300 300 298 297 295 292 291 290 290 289 288 288 287 286
286 286 286 287 288 289 291 291 292 292 292 292 292 291 292 292 292 294 294 294 295 297 298 300 300 300 301 301 302 302 301 301 299 297 296 294 293 291 290 289 289 288 287 286
285 285 286 288 288 289 292 293 293 292 293 293 292 292 292 292 293 293 294 296 297 297 299 300 300 301 302 302 302 302 301 301 300 298 297 296 294 292 290 290 290 288 287 286
286 287 287 288 288 289 290 291 290 291 291 291 291 292 292 293 294 294 295 297 298 299 300 301 302 302 302 302 303 302 302 302 301 300 299 298 295 293 292 292 291 290 288 287
286 287 287 286 287 289 289 289 290 290 290 291 291 291 292 293 294 295 296 298 299 300 302 303 304 304 304 303 302 303 303 303 302 301 300 299 297 295 294 293 292 291 290 288
286 285 285 286 286 286 287 288 288 289 289 290 290 291 292 293 294 295 297 298 299 301 302 304 304 305 305 305 304 303 303 303 303 303 302 300 298 296 295 294 293 292 290 289
286 286 285 285 286 285 286 287 288 288 288 288 289 291 292 293 294 295 296 298 299 301 302 303 304 305 305 305 305 305 304 304 304 304 303 301 300 298 297 296 295 293 291 290
285 284 284 286 287 287 288 288 288 287 288 289 290 292 293 293 293 294 295 297 298 300 301 302 304 304 304 306 306 307 307 306 305 305 304 303 301 300 299 298 296 295 294 293
Height
5744 5744 5742 5741 5739 5738 5736 5734 5733 5731 5729 5727 5726 5724 5723 5721 5719 5717 5715 5713 5712 5710 5709 5707 5706 5705 5704 5703 5702 5701 5700 5699 5698 5697 5696 5695 5694 5692 5691 5690 5689 5688 5688 5687
5738 5737 5736 5734 5732 5730 5729 5727 5726 5724 5722 5719 5717 5716 5715 5712 5710 5708 5706 5704 5703 5701 5700 5698 5697 5695 5694 5693 5691 5690 5689 5688 5687 5686 5684 5683 5682 5680 5679 5677 5676 5674 5674 5673
5731 5731 5729 5727 5726 5724 5722 5720 5718 5716 5714 5711 5709 5708 5707 5705 5702 5700 5697 5695 5693 5692 5690 5689 5687 5686 5684 5682 5681 5679 5678 5677 5676 5674 5672 5671 5669 5667 5666 5664 5662 5661 5660 5659
5724 5724 5722 5720 5719 5716 5715 5713 5710 5707 5704 5702 5700 5696 5699 5696 5693 5691 5689 5686 5684 5683 5681 5679 5677 5676 5674 5672 5670 5669 5667 5666 5664 5662 5660 5659 5657 5655 5653 5650 5648 5647 5646 5645
5717 5716 5715 5713 5712 5709 5706 5704 5702 5699 5695 5693 5691 5687 5688 5686 5684 5682 5680 5677 5675 5673 5671 5669 5668 5666 5664 5662 5660 5658 5656 5654 5652 5650 5648 5646 5643 5641 5639 5637 5634 5633 5631 5630
5710 5709 5707 5705 5703 5701 5698 5696 5693 5689 5686 5684 5683 5679 5677 5676 5675 5673 5671 5668 5665 5664 5662 5660 5658 5656 5654 5652 5649 5647 5645 5642 5640 5638 5635 5632 5630 5627 5625 5622 5620 5618 5616 5615
5703 5701 5699 5697 5695 5693 5690 5687 5683 5679 5676 5675 5674 5670 5669 5667 5666 5664 5662 5659 5656 5654 5652 5651 5648 5646 5644 5641 5638 5636 5633 5630 5628 5625 5622 5619 5616 5613 5610 5608 5605 5603 5601 5600
5694 5693 5691 5688 5686 5684 5681 5679 5676 5671 5668 5665 5664 5661 5661 5659 5656 5654 5652 5649 5647 5645 5643 5641 5638 5636 5634 5631 5627 5624 5621 5618 5615 5612 5609 5605 5602 5599 5596 5593 5590 5588 5586 5584
5684 5684 5682 5680 5677 5675 5672 5670 5667 5663 5659 5656 5654 5653 5652 5649 5647 5645 5642 5640 5637 5635 5632 5630 5628 5625 5622 5619 5615 5612 5609 5606 5602 5599 5595 5592 5588 5584 5581 5578 5575 5573 5571 5569
5675 5673 5673 5670 5668 5666 5664 5661 5658 5654 5650 5646 5645 5643 5642 5639 5637 5635 5632 5630 5627 5625 5622 5619 5616 5613 5610 5607 5603 5600 5596 5593 5589 5585 5581 5578 5574 5570 5567 5564 5561 5559 5557 5555
5666 5664 5663 5661 5659 5657 5655 5652 5648 5645 5642 5639 5635 5637 5633 5630 5627 5625 5622 5619 5617 5614 5611 5608 5605 5602 5598 5595 5591 5587 5583 5579 5575 5571 5568 5564 5560 5556 5553 5550 5547 5545 5542 5541
5657 5654 5651 5651 5649 5646 5644 5642 5639 5637 5633 5629 5626 5628 5624 5621 5617 5614 5612 5609 5606 5603 5600 5597 5593 5590 5586 5583 5579 5574 5570 5566 5561 5558 5554 5550 5546 5542 5539 5536 5533 5531 5529 5527
5647 5644 5641 5639 5640 5637 5634 5632 5629 5626 5623 5620 5617 5618 5614 5610 5607 5604 5601 5598 5595 5592 5589 5586 5582 5578 5574 5570 5566 5562 5557 5553 5548 5544 5540 5536 5532 5529 5525 5522 5520 5517 5515 5513
5636 5634 5632 5630 5627 5625 5623 5621 5618 5615 5612 5610 5608 5607 5604 5600 5596 5593 5590 5587 5584 5581 5578 5574 5570 5566 5562 5558 5553 5549 5544 5539 5535 5530 5526 5523 5519 5515 5512 5509 5506 5504 5501 5499
5626 5624 5622 5620 5617 5615 5612 5611 5608 5605 5602 5600 5599 5596 5594 5589 5586 5583 5580 5576 5573 5570 5566 5562 5558 5554 5550 5545 5541 5536 5532 5527 5522 5517 5513 5510 5506 5503 5499 5496 5494 5491 5488 5486
5615 5613 5611 5610 5607 5604 5602 5601 5598 5595 5592 5589 5587 5586 5583 5579 5576 5572 5568 5565 5562 5559 5555 5551 5547 5543 5538 5534 5529 5524 5519 5514 5509 5505 5501 5497 5494 5490 5487 5484 5482 5479 5476 5474
5604 5602 5600 5598 5596 5592 5591 5592 5588 5585 5582 5579 5576 5576 5572 5569 5565 5561 5558 5555 5551 5547 5544 5540 5536 5531 5527 5522 5517 5512 5507 5502 5497 5493 5488 5485 5482 5479 5476 5473 5470 5467 5464 5462
5594 5591 5588 5586 5585 5582 5585 5580 5577 5574 5572 5569 5566 5563 5560 5557 5554 5551 5548 5544 5540 5537 5533 5529 5525 5520 5515 5511 5506 5501 5496 5491 5486 5481 5477 5473 5470 5467 5464 5461 5458 5455 5453 5450
5584 5581 5578 5575 5572 5571 5573 5570 5566 5563 5562 5559 5555 5553 5550 5547 5544 5541 5537 5534 5530 5526 5522 5518 5514 5509 5505 5500 5495 5490 5485 5480 5475 5470 5466 5462 5459 5456 5453 5450 5447 5444 5441 5439
5572 5570 5568 5564 5561 5561 5563 5559 5555 5553 5551 5549 5545 5542 5539 5536 5534 5532 5528 5524 5520 5516 5512 5508 5503 5498 5494 5489 5484 5479 5474 5469 5464 5460 5456 5452 5448 5445 5442 5439 5436 5433 5431 5428
5562 5559 5557 5554 5550 5550 5551 5548 5545 5544 5542 5538 5534 5531 5529 5526 5524 5521 5517 5514 5510 5506 5502 5497 5493 5488 5483 5478 5473 5468 5463 5458 5454 5450 5445 5441 5437 5434 5431 5428 5425 5422 5420 5418
5551 5549 5547 5544 5541 5543 5540 5537 5536 5533 5530 5527 5524 5521 5519 5516 5513 5510 5507 5503 5500 5496 5492 5487 5482 5477 5472 5467 5463 5458 5453 5448 5444 5439 5435 5431 5427 5424 5420 5418 5415 5412 5409 5407
5541 5540 5536 5535 5535 5532 5529 5526 5524 5522 5519 5517 5514 5512 5509 5506 5503 5500 5497 5493 5489 5485 5481 5477 5472 5467 5462 5457 5452 5447 5443 5438 5433 5429 5425 5421 5417 5413 5410 5407 5404 5401 5398 5396
5531 5529 5526 5524 5523 5522 5519 5516 5514 5512 5509 5507 5504 5501 5499 5496 5493 5490 5487 5483 5479 5475 5471 5466 5462 5457 5452 5447 5442 5437 5432 5428 5423 5419 5415 5411 5407 5404 5400 5397 5394 5391 5388 5385
5521 5518 5516 5514 5513 5511 5509 5507 5504 5502 5499 5496 5494 5491 5488 5486 5483 5479 5476 5473 5469 5465 5461 5456 5452 5447 5442 5437 5432 5427 5422 5418 5414 5409 5405 5401 5398 5394 5391 5387 5384 5381 5378 5375
5511 5508 5506 5504 5503 5501 5499 5496 5494 5491 5489 5486 5484 5481 5478 5475 5472 5469 5466 5462 5458 5454 5450 5446 5441 5437 5432 5427 5423 5418 5413 5409 5405 5400 5396 5393 5389 5385 5382 5378 5375 5371 5368 5365